Wetbulb
49.56 46.18 43.97 45.97 46.37 45.67 43.90 42.91 42.62 45.20 47.85 46.67 46.44 46.71 48.58 50.89 51.53 51.37 52.07 52.66 53.41 54.28 56.30 57.85 58.69 60.60 61.83 63.61 64.63 67.70 72.65 75.24 75.39 74.39 73.49 73.18 72.37 73.50 73.92 74.31 75.91 75.02 74.94 74.64
46.32 43.63 47.01 47.14 46.52 44.70 44.29 42.94 43.29 45.84 47.38 46.78 46.54 46.11 49.13 50.43 50.84 51.57 51.89 52.40 53.21 54.22 55.31 56.56 58.12 59.56 61.46 63.00 64.36 66.35 70.72 74.48 75.23 74.54 74.20 73.79 73.31 72.79 73.23 73.86 74.75 74.87 74.31 74.41
44.73 45.58 46.89 45.48 44.84 43.40 44.29 43.31 43.57 43.31 46.53 47.78 46.72 45.29 47.58 49.96 51.21 51.73 52.77 53.54 53.65 53.94 54.76 56.16 56.93 58.88 60.50 62.12 64.25 65.33 68.19 72.81 76.01 76.60 75.04 74.15 73.79 73.21 71.84 72.89 72.75 73.82 73.80 73.91
45.95 48.42 45.83 45.22 43.95 45.16 42.37 46.25 44.75 44.14 43.73 40.64 47.20 38.24 45.66 48.32 48.70 50.34 51.67 52.74 53.31 54.24 55.15 55.88 56.72 58.09 59.11 60.74 62.93 65.06 66.81 69.88 73.26 75.48 74.65 74.03 71.63 70.52 71.66 72.53 72.99 73.28 73.36 73.03
44.87 45.02 44.76 44.26 44.95 46.07 44.14 46.92 46.03 45.52 44.01 43.73 43.48 41.14 44.41 47.94 46.63 48.23 50.53 51.76 52.46 53.71 54.68 55.40 56.87 58.43 59.84 60.95 61.53 63.59 66.44 67.77 70.85 73.66 75.05 73.24 72.25 72.05 72.17 72.77 75.13 74.91 73.98 73.24
46.86 49.31 47.31 46.78 46.88 46.84 47.85 46.22 46.37 46.33 44.60 37.99 42.49 41.38 42.84 44.07 45.10 47.25 49.81 51.25 52.82 54.58 55.61 56.70 57.89 58.84 59.40 60.90 61.25 61.84 64.66 67.26 69.31 71.67 73.30 74.37 74.20 73.22 71.64 72.75 72.14 72.42 72.35 72.78
45.91 46.45 48.54 48.15 45.65 48.27 47.10 44.34 38.04 37.08 37.66 36.79 42.48 39.25 41.49 45.84 47.93 48.93 49.33 51.39 53.19 54.84 55.61 56.06 56.56 57.37 58.30 59.19 61.04 61.63 61.76 65.06 69.06 70.47 71.44 72.00 72.79 73.94 73.70 73.59 72.60 72.91 71.50 72.03
39.82 39.04 44.75 47.85 46.08 44.37 44.44 43.94 37.46 29.70 32.82 35.68 40.65 35.58 41.62 47.58 49.30 50.55 51.23 52.35 53.35 54.09 55.20 55.73 56.45 57.43 57.84 58.61 59.69 61.63 60.72 62.38 66.65 70.84 70.96 71.48 72.19 72.70 73.00 73.45 72.43 71.80 70.57 72.13
39.99 39.49 46.25 46.92 47.50 46.34 43.88 40.29 44.88 37.83 38.29 34.50 38.07 41.04 45.27 48.05 47.97 48.95 49.88 51.15 51.94 53.52 54.57 55.23 56.42 57.30 58.01 58.79 59.31 60.37 61.66 61.70 63.96 68.22 71.19 71.72 72.92 73.25 72.85 73.85 73.44 71.68 73.00 71.18
43.52 38.21 43.80 45.31 47.07 46.67 43.94 46.07 37.56 39.65 28.39 27.63 35.33 36.51 38.38 43.42 45.08 47.42 48.28 49.24 51.23 52.54 53.28 54.51 55.31 56.20 57.87 58.98 59.79 60.34 61.89 61.87 62.78 65.79 67.74 69.02 69.71 69.34 68.15 68.40 68.40 68.22 68.22 68.49
45.19 41.53 40.07 42.86 41.80 40.74 42.42 40.40 40.69 40.09 38.17 30.33 29.35 35.52 44.85 44.14 45.67 46.62 48.30 48.83 50.91 51.75 52.50 53.35 54.18 55.34 56.44 57.41 58.14 59.78 59.71 61.18 61.96 63.42 64.94 65.06 64.59 64.82 65.67 65.60 65.79 66.06 67.17 67.04
45.45 42.21 37.42 39.69 44.15 44.75 43.56 41.34 41.96 36.07 33.52 36.11 35.15 35.30 46.43 47.18 48.23 49.09 48.64 49.65 51.61 52.46 52.49 53.25 53.68 54.20 54.46 54.98 56.37 57.77 59.47 58.72 60.56 61.00 62.03 62.03 63.25 63.89 64.53 64.25 65.00 65.49 65.84 66.00
45.32 39.83 35.07 37.11 40.69 43.30 40.39 42.10 42.15 41.59 40.35 34.98 31.83 35.25 45.73 47.06 47.17 49.01 49.08 50.39 51.16 51.71 52.06 52.84 53.35 53.16 53.35 53.81 54.64 55.88 56.85 57.65 58.48 58.95 60.48 60.84 62.09 63.35 64.24 64.26 64.71 64.85 64.64 64.75
47.31 41.16 38.29 34.28 37.73 40.80 37.78 39.88 41.89 41.35 36.29 36.74 37.26 39.12 43.12 45.11 46.24 48.17 49.65 50.60 50.80 51.43 51.54 52.14 52.16 52.24 52.70 53.36 53.80 54.13 54.85 56.59 56.34 57.01 57.68 58.67 61.27 62.52 63.09 64.43 64.79 64.34 63.96 63.33
44.24 38.50 40.36 40.95 41.04 40.92 39.90 39.59 40.01 38.87 39.86 36.27 38.78 39.29 42.80 45.11 46.91 48.05 49.49 50.03 49.86 49.92 49.96 50.28 50.47 50.99 51.65 52.15 53.03 53.76 54.31 54.83 55.66 55.39 55.95 56.80 57.78 60.11 62.00 62.90 63.94 63.98 63.67 62.96
44.75 36.85 39.47 37.43 40.53 40.56 38.28 39.97 40.24 40.20 40.43 40.49 40.80 40.32 46.40 48.38 49.08 47.94 48.41 48.24 47.50 47.97 48.86 49.63 50.17 50.67 50.98 51.77 52.13 52.87 53.18 54.08 54.96 53.87 53.10 56.02 56.61 57.04 58.19 60.53 62.54 63.54 63.24 62.93
41.05 38.87 37.12 33.22 38.39 37.69 34.69 40.13 40.79 41.31 42.59 41.95 38.38 43.64 47.04 46.21 46.00 46.42 46.81 47.21 46.68 47.37 48.19 48.94 49.35 50.07 50.79 51.39 52.15 51.91 52.67 53.70 53.71 53.98 52.61 53.72 54.49 55.75 56.50 57.51 59.21 61.23 63.00 64.40
39.28 39.27 38.28 33.75 36.35 28.30 40.09 44.31 43.55 41.58 43.06 44.77 44.81 45.52 46.09 45.94 46.90 46.84 47.02 46.39 46.39 46.69 46.64 46.77 47.31 48.62 49.71 49.39 49.93 51.53 50.11 51.78 52.39 52.83 53.61 53.00 51.25 52.06 53.19 55.87 56.27 58.95 61.10 63.09
42.92 39.54 34.87 32.03 33.53 37.92 39.80 41.94 41.38 40.09 40.32 45.32 44.38 44.89 45.32 45.85 45.75 44.31 47.37 47.19 45.40 45.31 46.16 46.98 47.07 47.65 47.28 47.44 48.16 47.70 49.27 49.75 48.74 50.32 52.45 53.53 52.65 52.25 52.00 52.02 53.89 57.43 59.40 60.67
41.83 41.90 36.96 34.52 30.09 27.88 39.20 43.26 45.37 45.27 37.74 44.50 44.69 43.92 43.49 43.83 35.69 39.62 44.18 44.80 45.00 45.16 44.91 43.93 44.97 44.09 44.97 43.77 46.20 45.85 44.90 46.33 46.63 47.79 48.99 52.70 53.44 53.36 53.69 56.46 56.10 56.62 58.57 58.86
36.26 37.08 33.65 33.24 32.80 37.32 43.09 44.03 45.97 34.49 37.92 45.39 44.67 43.99 41.97 38.36 40.31 43.58 44.72 44.27 43.86 43.16 42.87 43.16 43.55 42.62 43.35 44.01 43.61 42.97 42.20 40.81 43.33 45.64 48.86 47.93 49.22 51.50 54.19 56.71 57.98 58.07 57.04 57.94
37.09 35.28 34.92 35.89 32.40 30.08 44.77 44.35 38.70 43.73 45.83 44.87 44.31 43.50 40.89 41.35 42.33 43.17 43.74 42.39 41.70 41.01 41.37 41.85 41.24 41.33 41.75 42.55 41.90 40.43 39.99 41.73 42.24 42.21 43.03 45.66 48.22 50.15 51.75 55.70 56.05 56.43 57.73 57.11
36.75 41.21 39.54 39.48 40.50 44.69 47.47 45.46 47.08 46.22 44.86 44.57 42.71 43.26 41.73 41.42 42.59 42.82 41.39 40.82 40.38 40.44 40.17 40.44 39.65 39.08 39.84 40.64 40.97 39.34 39.81 40.93 41.14 41.10 41.55 41.73 44.75 46.51 48.99 50.57 53.48 53.96 56.11 55.36
42.64 44.82 41.13 40.01 43.15 44.77 46.34 46.87 46.71 46.94 45.36 45.06 43.66 42.70 42.66 42.70 41.89 40.94 40.14 39.78 39.24 39.42 38.95 39.03 38.03 37.63 38.43 40.36 40.51 40.92 41.53 42.26 41.58 40.27 40.58 41.38 42.91 43.97 44.76 47.15 49.85 50.68 52.57 53.64
42.65 43.92 40.96 41.55 44.32 44.86 45.28 46.25 46.26 45.57 45.79 44.48 44.73 44.71 44.64 43.63 41.61 39.88 38.85 38.39 37.85 38.05 37.72 38.13 37.96 37.96 38.09 39.34 39.99 42.72 42.70 41.92 40.62 40.84 41.06 40.89 41.66 43.20 43.99 45.06 45.56 49.09 52.83 53.11
43.48 41.65 40.32 38.78 44.04 43.59 44.78 46.56 46.57 44.43 43.89 43.76 43.79 43.70 44.43 43.56 40.80 39.41 37.90 37.80 36.80 36.40 37.39 37.47 37.49 37.59 38.26 40.21 41.72 42.98 41.89 41.94 40.73 40.58 39.55 41.02 41.33 42.22 43.94 44.60 45.23 43.48 43.84 42.97
MSLP
1007.36 1006.72 1005.81 1005.40 1005.87 1005.94 1006.08 1005.81 1005.34 1005.23 1005.41 1005.25 1004.68 1004.26 1003.83 1003.69 1003.50 1003.26 1003.01 1002.77 1002.70 1002.57 1002.70 1002.98 1003.03 1003.24 1003.37 1003.17 1003.35 1003.37 1003.60 1003.91 1004.60 1005.18 1005.55 1005.52 1005.56 1005.94 1006.22 1006.49 1006.99 1007.41 1008.05 1008.76
1007.14 1005.99 1005.55 1006.10 1006.40 1006.60 1006.30 1005.76 1005.26 1005.14 1005.25 1005.31 1004.62 1003.93 1003.58 1003.30 1002.93 1003.02 1002.83 1002.47 1002.12 1001.90 1001.96 1001.98 1002.20 1002.45 1002.85 1003.09 1003.05 1002.91 1002.91 1003.25 1003.90 1004.38 1004.65 1004.78 1005.20 1005.53 1005.93 1006.07 1006.48 1006.93 1007.29 1007.83
1005.80 1005.56 1006.27 1006.36 1006.39 1006.34 1005.93 1005.59 1005.29 1005.19 1005.11 1004.96 1004.15 1003.12 1002.51 1002.00 1002.09 1002.47 1002.47 1002.40 1002.14 1001.90 1001.74 1001.74 1001.82 1002.31 1002.36 1002.49 1002.57 1002.47 1002.48 1002.63 1002.67 1002.92 1003.53 1004.25 1004.85 1005.16 1005.56 1005.51 1005.76 1006.16 1006.89 1007.34
1005.75 1005.51 1005.98 1006.06 1005.92 1005.97 1005.31 1005.21 1005.72 1005.49 1005.01 1003.76 1003.92 1002.41 1002.28 1001.99 1001.76 1001.86 1001.91 1001.80 1001.83 1001.88 1001.70 1001.56 1001.46 1001.85 1002.02 1002.03 1002.20 1002.15 1002.10 1002.02 1002.04 1002.58 1002.54 1003.07 1003.28 1003.63 1003.92 1004.63 1004.93 1005.43 1006.08 1006.62
1004.84 1005.60 1005.75 1005.57 1005.37 1005.91 1005.49 1005.93 1005.86 1005.53 1004.91 1004.29 1003.58 1002.38 1001.50 1001.68 1001.41 1001.46 1001.64 1001.86 1002.16 1001.91 1001.73 1002.04 1002.27 1002.35 1002.37 1002.29 1002.03 1001.87 1001.75 1001.54 1001.29 1001.52 1001.98 1002.32 1002.99 1002.74 1002.93 1003.51 1003.88 1004.63 1005.22 1005.97
1005.62 1005.79 1006.07 1005.57 1005.99 1006.34 1006.33 1006.27 1005.74 1005.25 1004.75 1003.71 1002.92 1002.75 1001.48 1001.67 1002.33 1002.67 1002.93 1002.70 1002.55 1002.78 1003.20 1002.88 1002.73 1002.57 1002.33 1002.14 1001.72 1001.30 1001.27 1001.18 1001.01 1001.03 1001.46 1001.69 1001.72 1001.98 1001.93 1002.74 1002.88 1003.44 1004.04 1005.15
1004.91 1004.97 1005.35 1006.39 1006.10 1006.28 1006.62 1006.29 1005.11 1004.14 1003.21 1002.37 1002.76 1003.10 1002.40 1002.90 1003.80 1004.18 1003.85 1003.95 1003.90 1003.83 1003.44 1003.04 1002.75 1002.76 1002.36 1002.01 1001.77 1001.36 1000.76 1000.52 1000.55 1000.51 1000.77 1001.12 1001.35 1001.55 1001.63 1002.01 1002.37 1002.46 1002.98 1003.63
1005.65 1005.25 1006.01 1006.71 1006.51 1006.14 1006.08 1006.71 1006.22 1005.36 1004.50 1003.83 1004.38 1002.95 1002.34 1003.37 1004.27 1004.66 1004.65 1004.59 1004.32 1004.16 1003.81 1003.53 1003.28 1003.07 1002.60 1002.11 1001.61 1001.08 1000.71 1000.19 1000.08 1000.05 1000.15 1000.38 1000.71 1000.94 1001.35 1001.58 1001.59 1001.89 1001.97 1002.69
1006.25 1006.30 1007.21 1007.34 1007.32 1007.41 1006.67 1007.40 1007.62 1007.54 1007.22 1005.80 1003.92 1002.96 1002.74 1003.75 1003.91 1004.20 1004.51 1004.46 1004.47 1004.42 1004.16 1003.77 1003.49 1003.13 1002.68 1002.14 1001.55 1001.12 1000.84 1000.35 1000.02 999.78 999.83 1000.02 1000.02 1000.47 1000.47 1000.82 1001.58 1001.53 1001.90 1002.19
1007.26 1006.98 1007.05 1007.44 1008.03 1008.20 1007.98 1008.07 1008.39 1008.18 1007.96 1006.05 1004.02 1003.43 1002.24 1002.62 1003.69 1004.38 1004.60 1004.49 1004.57 1004.49 1004.13 1003.86 1003.52 1003.23 1002.85 1002.22 1001.44 1001.07 1000.91 1000.63 1000.09 1000.01 1000.13 1000.14 1000.22 1000.39 1000.53 1001.10 1001.32 1001.47 1002.08 1002.52
1007.84 1007.98 1007.58 1008.09 1007.49 1007.18 1007.96 1008.25 1008.82 1009.12 1009.15 1007.99 1005.62 1003.69 1003.50 1003.79 1003.92 1004.58 1004.65 1004.50 1004.61 1004.51 1004.23 1003.87 1003.51 1003.23 1002.82 1002.34 1001.75 1001.30 1000.79 1000.56 1000.42 1000.29 1000.36 1000.37 1000.22 1000.20 1000.36 1000.63 1001.10 1001.56 1002.04 1002.57
1008.47 1008.30 1007.76 1007.29 1007.34 1008.22 1008.10 1007.93 1008.20 1008.71 1008.77 1008.61 1007.34 1004.52 1004.21 1004.41 1004.36 1004.57 1004.39 1004.27 1004.49 1004.52 1004.32 1003.84 1003.46 1003.13 1002.64 1002.41 1001.99 1001.57 1001.50 1000.81 1000.58 1000.78 1000.76 1000.63 1000.49 1000.21 1000.39 1000.62 1000.78 1001.50 1001.84 1002.21
1008.98 1008.78 1007.91 1007.13 1008.02 1008.38 1007.95 1007.92 1008.30 1008.73 1009.12 1008.17 1007.14 1004.68 1004.24 1003.98 1004.05 1004.06 1004.07 1004.14 1004.42 1004.39 1004.04 1003.76 1003.28 1002.94 1002.69 1002.50 1002.38 1001.90 1001.78 1001.67 1001.15 1001.17 1000.48 1000.73 1000.60 1000.51 1000.33 1001.12 1000.79 1001.14 1001.64 1001.72
1009.63 1009.00 1008.38 1007.39 1006.44 1007.44 1007.83 1007.74 1007.73 1007.73 1007.43 1006.56 1005.44 1004.15 1003.91 1003.80 1003.76 1003.87 1004.09 1004.22 1004.33 1004.07 1003.68 1003.45 1003.24 1002.98 1002.74 1002.67 1002.39 1002.20 1001.85 1001.66 1001.68 1001.40 1000.96 1000.71 1000.40 1000.46 1000.55 1000.69 1000.89 1000.92 1001.03 1001.35
1010.09 1009.10 1008.72 1007.88 1007.62 1007.38 1007.26 1007.09 1006.99 1006.67 1006.47 1006.05 1004.90 1004.32 1004.03 1003.97 1003.86 1004.51 1004.55 1004.40 1004.09 1003.88 1003.49 1003.24 1002.99 1002.82 1002.72 1002.54 1002.40 1002.11 1001.83 1001.62 1001.58 1001.66 1001.10 1001.05 1001.02 1000.69 1000.35 1000.55 1000.73 1000.61 1000.76 1001.09
1010.17 1009.42 1008.97 1008.18 1007.90 1007.44 1006.67 1006.28 1005.99 1005.85 1005.63 1005.29 1004.94 1004.22 1004.02 1003.64 1003.88 1004.12 1004.39 1004.54 1004.36 1003.94 1003.47 1003.07 1002.86 1002.71 1002.55 1002.48 1002.27 1001.97 1001.69 1001.45 1001.34 1001.23 1001.11 1001.01 1000.80 1000.68 1000.66 1000.52 1000.46 1000.66 1000.58 1000.80
1010.09 1009.69 1009.04 1008.17 1007.64 1007.54 1006.28 1005.03 1005.13 1005.05 1004.91 1004.93 1004.49 1003.93 1004.26 1004.22 1004.53 1004.94 1004.95 1004.80 1004.31 1003.78 1003.28 1002.88 1002.76 1002.59 1002.44 1002.22 1001.89 1001.55 1001.31 1001.08 1000.75 1000.44 1000.55 1000.83 1000.37 1000.51 1000.37 1000.19 1000.37 1000.27 1000.37 1000.49
1010.23 1009.82 1009.32 1008.67 1008.04 1006.63 1005.49 1005.98 1006.08 1005.90 1005.59 1005.40 1005.09 1004.87 1005.21 1005.42 1005.24 1005.21 1005.37 1004.91 1004.17 1003.82 1003.61 1003.54 1003.39 1002.98 1002.60 1002.38 1001.86 1001.10 1001.09 1000.68 1000.05 999.40 999.13 999.16 999.55 999.84 1000.25 1000.38 1000.29 1000.38 1000.19 1000.33
1010.28 1010.03 1009.60 1008.95 1007.44 1006.15 1005.47 1006.44 1006.40 1006.38 1005.94 1005.91 1005.88 1006.20 1006.25 1006.16 1005.67 1004.75 1005.07 1005.25 1005.30 1005.00 1004.48 1003.89 1003.68 1002.99 1002.36 1001.87 1001.52 1001.10 1000.03 999.58 999.36 998.91 998.10 998.05 998.24 998.51 999.28 1000.26 1000.18 1000.28 1000.26 1000.13
1010.06 1010.27 1010.00 1009.19 1008.54 1006.81 1006.48 1006.99 1007.43 1007.19 1005.94 1007.03 1007.51 1007.27 1007.11 1006.80 1006.02 1004.85 1005.55 1005.74 1005.28 1004.99 1004.40 1003.73 1002.97 1002.43 1001.51 1001.29 1000.81 1000.13 999.73 999.13 998.69 998.30 998.15 997.28 997.20 997.37 997.51 997.92 998.81 999.50 999.58 999.45
1009.64 1009.68 1009.52 1009.17 1008.62 1007.10 1007.45 1007.79 1007.89 1007.44 1007.69 1007.69 1008.05 1007.92 1007.88 1007.79 1007.41 1006.02 1005.65 1005.09 1005.04 1004.56 1003.74 1003.13 1002.19 1001.20 1000.52 1000.17 999.85 999.08 998.73 998.20 998.09 998.07 997.35 997.25 997.22 996.92 996.63 997.09 997.37 997.91 998.28 998.56
1008.51 1008.85 1008.84 1008.66 1008.39 1007.86 1008.09 1007.84 1008.17 1008.36 1008.45 1008.53 1008.40 1008.46 1008.24 1007.89 1007.04 1006.10 1005.17 1004.53 1004.18 1003.54 1002.73 1002.21 1001.03 1000.11 999.73 999.18 998.64 997.92 997.38 997.05 997.16 997.23 997.16 996.76 996.37 996.29 996.02 995.88 996.23 996.74 997.20 997.63
1008.05 1007.79 1007.92 1007.92 1007.53 1008.06 1008.23 1008.52 1008.79 1009.14 1008.91 1008.71 1008.93 1008.69 1008.48 1007.59 1006.68 1005.51 1004.77 1004.33 1003.66 1002.98 1002.15 1001.36 1000.37 999.31 998.55 997.78 997.09 996.31 995.77 995.71 995.46 995.61 995.52 995.87 995.79 995.86 995.52 995.36 995.26 995.82 996.35 996.35
1007.72 1007.96 1007.94 1007.78 1007.35 1007.73 1008.12 1008.52 1008.91 1009.13 1009.06 1008.95 1009.05 1008.71 1008.07 1006.94 1006.21 1005.45 1005.01 1004.12 1003.25 1002.43 1001.44 1000.51 999.35 998.32 997.21 996.40 995.70 994.90 994.06 993.57 993.47 993.59 993.85 994.19 994.29 994.63 995.09 995.00 994.51 994.90 994.92 995.22
1007.73 1008.10 1007.64 1007.46 1007.14 1007.77 1008.11 1008.51 1008.96 1009.08 1009.05 1008.88 1008.78 1008.23 1007.44 1006.74 1006.02 1005.66 1004.85 1003.95 1003.09 1002.02 1000.79 999.87 998.79 997.63 996.44 995.55 994.35 993.25 992.75 992.52 992.06 991.85 991.84 992.46 993.04 993.43 993.89 994.47 994.72 994.23 994.36 994.36
1007.50 1007.68 1007.97 1007.84 1008.31 1008.56 1008.27 1008.73 1009.01 1008.93 1008.83 1008.82 1008.31 1007.65 1007.31 1006.78 1006.16 1005.60 1004.77 1004.04 1003.07 1001.58 1000.22 999.21 998.27 997.16 996.00 994.74 993.56 992.56 992.16 991.52 990.92 989.88 989.79 990.88 991.89 992.61 993.10 993.71 994.25 994.85 994.45 994.56
Wind_Speed
9 10 11 10 7 7 6 8 11 9 10 13 15 16 16 15 16 16 15 14 14 16 13 12 11 10 12 14 13 14 15 14 13 13 14 14 14 13 13 13 14 16 15 17
8 13 7 4 6 9 11 12 12 10 9 10 16 18 17 18 19 16 16 16 18 17 17 15 15 14 10 13 14 14 17 17 17 13 11 12 10 11 11 12 13 15 16 17
13 7 6 6 9 10 12 12 11 13 13 14 20 18 17 12 11 13 16 17 18 19 20 18 16 15 13 13 13 14 16 17 18 18 12 10 10 10 10 12 13 14 17 16
9 9 9 9 8 10 12 4 8 13 14 14 14 17 17 15 15 15 15 16 14 18 19 20 18 15 16 14 13 13 16 16 17 18 15 16 15 14 13 13 13 13 18 17
6 6 8 10 8 3 12 5 12 15 17 19 18 17 14 16 15 14 15 14 18 18 14 14 14 15 15 14 14 13 13 16 18 17 18 16 18 13 10 11 13 14 13 16
14 3 7 8 3 6 6 13 17 17 14 15 15 11 6 11 16 17 17 17 14 14 12 11 11 12 13 14 14 13 13 15 17 19 21 19 18 16 13 13 12 11 11 11
14 13 10 5 13 10 10 13 11 11 11 12 7 11 12 13 10 15 10 10 10 9 10 11 13 15 15 16 16 13 16 15 17 20 21 22 21 17 15 13 13 12 11 11
8 11 4 3 9 12 3 8 8 9 11 16 18 8 2 11 2 5 5 8 10 11 13 13 12 14 15 17 17 15 14 16 16 17 16 15 16 11 13 14 11 12 12 11
5 7 4 1 2 4 6 9 7 10 15 14 11 10 8 6 3 4 9 9 9 11 13 14 15 14 16 15 16 15 15 14 15 15 15 16 14 16 15 14 13 10 9 8
3 11 5 5 5 4 9 5 5 6 6 8 8 15 10 3 8 10 10 14 13 13 13 13 13 14 14 14 15 14 11 13 13 11 12 12 13 14 12 12 13 10 10 9
5 6 5 5 11 9 8 10 6 5 4 5 9 6 6 11 12 7 12 15 14 13 14 13 13 13 14 14 14 14 13 8 7 8 11 12 11 13 12 11 11 10 10 10
6 6 10 11 4 5 9 10 10 8 9 8 12 17 5 10 10 10 20 15 15 13 13 13 14 15 14 14 15 12 14 8 11 7 6 7 6 8 9 11 12 12 12 12
6 6 9 10 8 7 8 9 9 11 10 14 13 13 5 11 16 16 16 14 12 14 15 15 15 14 14 14 13 13 10 13 7 9 7 7 8 9 10 12 12 13 13 12
6 12 11 11 12 4 9 11 12 14 14 16 17 22 19 16 18 17 16 13 15 15 17 16 15 16 15 14 14 13 13 11 7 8 6 6 9 11 10 12 12 13 13 14
7 14 15 16 16 15 16 17 17 20 20 21 21 23 21 20 15 15 16 18 19 19 19 20 19 17 17 17 16 15 14 13 12 11 8 6 5 7 10 12 14 14 14 14
7 11 13 15 16 16 20 21 21 20 20 22 22 23 20 12 15 19 18 19 20 22 23 22 20 20 19 19 19 18 17 16 15 13 12 14 10 7 6 11 13 12 13 16
10 7 9 13 7 10 15 16 11 11 12 14 16 15 17 19 19 18 18 22 25 26 24 23 23 22 21 23 22 20 21 19 19 18 15 17 12 12 10 7 12 15 15 14
13 10 8 9 11 14 4 1 6 9 10 12 15 16 17 17 20 24 24 24 23 24 25 24 23 25 23 24 23 20 19 20 23 21 20 17 12 13 10 12 11 13 13 13
13 12 7 8 9 14 6 4 4 8 13 16 11 13 19 24 26 26 17 20 24 26 25 23 23 25 24 21 22 22 21 21 21 22 23 20 17 16 15 14 11 10 11 12
13 13 9 6 6 4 7 4 5 9 10 5 11 18 23 23 18 17 22 26 26 25 22 24 23 25 20 22 18 20 23 20 20 21 19 19 20 20 20 19 21 17 14 14
7 9 13 12 7 7 6 3 6 6 7 17 19 21 22 19 17 28 27 26 25 24 25 25 23 23 22 20 20 19 15 21 20 20 21 21 20 20 21 18 16 17 16 15
9 8 6 9 5 7 2 5 5 11 14 17 19 21 21 23 26 27 26 27 26 26 24 23 21 20 20 18 16 19 20 19 18 18 20 21 18 17 15 20 18 18 17 17
5 6 3 5 1 2 2 5 6 7 16 15 19 21 21 24 26 28 26 28 25 25 22 20 20 22 20 18 16 18 19 19 18 17 19 20 19 20 18 17 20 17 17 17
4 4 4 3 4 1 8 2 5 12 15 17 18 20 21 24 26 27 25 24 23 22 21 20 21 20 19 16 17 17 18 18 18 19 18 16 17 18 18 11 14 14 17 17
4 2 5 8 8 6 3 4 11 14 15 17 18 19 22 24 25 26 23 24 22 22 21 19 18 17 18 18 18 16 9 12 12 12 15 15 13 14 14 15 10 12 16 16
7 7 6 5 6 7 10 11 13 14 16 17 18 20 21 23 25 24 21 20 20 21 20 17 18 17 17 17 16 10 10 10 10 12 13 11 10 10 11 11 12 22 12 13
Wind_Direction
206 228 219 221 226 295 261 261 263 270 272 274 274 279 282 284 283 279 276 273 271 273 269 282 277 277 285 284 271 240 222 217 210 204 208 210 213 210 211 213 206 209 210 212
200 231 257 238 223 231 241 251 257 268 258 271 280 279 286 279 274 276 274 276 279 277 278 272 273 275 269 274 271 256 236 217 207 204 210 218 214 212 219 213 207 212 211 212
253 85 94 181 197 228 232 258 278 289 304 275 263 279 275 267 247 248 265 273 273 272 277 280 283 275 283 281 274 264 245 234 215 217 201 203 214 218 210 219 211 211 213 210
247 230 235 239 240 236 266 279 270 286 288 290 327 290 281 283 282 281 284 290 277 287 288 283 287 277 284 287 291 274 260 239 227 213 210 200 203 200 209 214 214 207 210 217
114 173 207 241 266 254 278 331 289 294 288 292 282 276 291 292 285 302 326 321 309 300 313 321 313 312 307 295 288 285 265 250 231 215 222 203 215 211 212 214 213 208 195 208
272 262 277 292 346 268 311 274 276 274 270 266 275 278 296 313 335 319 322 305 323 354 321 323 327 325 320 315 302 286 264 248 233 222 211 218 212 220 207 206 201 198 196 194
239 237 237 249 258 207 248 268 273 267 236 263 6 299 284 322 1 326 320 331 330 330 336 338 355 344 343 341 330 303 276 250 234 222 216 217 218 211 214 207 214 193 199 199
284 271 182 140 256 288 271 305 279 288 287 310 317 263 272 341 185 341 340 336 342 339 333 318 320 329 331 342 339 329 291 269 243 227 216 217 213 211 216 208 217 210 207 199
258 246 115 181 226 270 153 244 1 295 269 258 254 247 259 98 199 330 334 335 339 332 331 338 334 324 323 329 340 342 321 284 261 231 230 214 205 210 208 204 207 202 205 190
250 270 166 126 220 201 270 63 236 219 280 284 298 305 291 314 357 330 330 337 330 328 326 328 331 340 334 333 332 353 341 302 273 251 233 219 202 197 192 187 191 186 185 199
259 245 159 207 210 257 178 219 218 288 243 282 298 293 57 313 300 297 297 329 315 322 321 324 328 332 328 334 339 333 354 330 293 244 229 216 199 196 186 185 188 186 181 187
230 278 266 266 74 302 280 270 240 224 236 227 282 284 332 347 336 288 295 317 316 313 315 317 322 324 329 330 333 345 334 3 333 213 228 227 227 201 189 192 184 188 185 184
187 238 253 214 191 202 240 216 243 230 257 260 271 272 300 276 312 312 313 308 308 307 310 315 313 315 319 325 326 330 340 337 351 321 281 221 219 209 199 214 192 192 194 185
269 255 255 266 320 158 238 240 238 239 243 265 260 279 290 297 308 320 312 315 302 301 302 305 307 311 315 314 311 312 311 310 314 309 326 299 257 219 216 217 212 202 198 193
275 252 250 262 273 279 268 261 259 249 256 261 279 287 297 298 321 306 300 295 302 304 308 313 309 310 306 305 303 295 294 297 295 288 288 287 297 276 255 233 226 213 204 199
224 264 268 270 266 262 269 267 262 261 265 267 274 280 277 293 300 303 313 311 303 299 299 298 301 301 303 301 300 294 289 284 281 274 274 269 259 252 253 245 223 223 211 207
247 246 240 266 269 287 266 263 264 275 273 275 273 299 321 303 319 312 305 303 299 298 298 304 308 304 306 301 296 285 283 278 272 263 247 254 251 250 247 237 244 225 216 209
248 239 259 266 284 256 70 17 328 301 293 282 282 300 322 309 308 310 307 295 301 310 312 309 305 298 294 297 281 280 275 275 275 260 254 250 230 252 250 252 235 239 223 215
225 245 254 248 257 282 260 89 3 340 304 297 314 313 316 314 308 293 305 319 311 301 297 295 300 295 293 286 295 283 275 273 259 267 256 242 241 220 211 222 240 233 223 213
212 230 236 260 247 266 62 75 341 312 274 50 327 315 316 318 302 297 316 309 304 299 296 297 288 287 281 286 286 289 279 259 263 267 263 254 240 238 235 211 200 210 214 213
179 195 218 227 250 276 71 9 301 267 353 330 326 319 318 306 294 303 306 304 302 301 298 297 291 285 283 280 271 263 275 268 265 266 261 248 255 258 239 230 220 209 202 199
183 185 202 227 246 255 75 296 315 343 318 317 321 314 311 305 302 303 301 306 308 304 303 299 294 294 292 286 279 268 263 262 254 242 252 254 244 238 239 228 219 216 210 203
245 230 227 230 270 112 310 306 322 317 315 320 321 314 311 307 306 313 311 310 308 307 305 303 300 300 294 286 271 266 262 258 253 244 235 235 236 234 241 238 210 210 211 215
215 213 244 274 122 324 305 329 263 332 320 323 316 314 311 311 317 310 312 309 310 311 311 307 302 298 299 301 292 277 268 256 241 239 233 228 229 214 218 244 216 208 213 208
8 269 276 261 267 316 144 318 337 322 324 322 320 314 319 320 316 315 311 313 312 313 311 308 308 306 304 302 294 293 314 290 270 258 231 217 214 212 212 221 237 224 225 217
239 283 272 281 8 314 309 334 324 326 328 324 322 322 321 322 320 316 313 314 315 314 316 319 318 313 311 309 316 321 321 311 297 281 206 197 190 202 196 201 209 230 241 202